TimeEST,TemperatureF,Dew PointF,Humidity,Sea Level PressureIn,VisibilityMPH,Wind Direction,Wind SpeedMPH,Gust SpeedMPH,PrecipitationIn,Events,Conditions,WindDirDegrees,DateUTC
12:15 AM,41.5,40.1,95,30.13,0.8,Calm,Calm,-,N/A,,Overcast,0,2012-11-21 05:15:00
12:36 AM,40.1,38.8,95,30.14,2.0,SW,3.5,-,N/A,,Overcast,220,2012-11-21 05:36:00
12:56 AM,42.8,41.7,96,30.14,1.8,Calm,Calm,-,N/A,,Overcast,0,2012-11-21 05:56:00
1:16 AM,42.6,41.4,95,30.14,2.0,WSW,3.5,-,N/A,,Overcast,250,2012-11-21 06:16:00
1:36 AM,43.3,42.3,96,30.15,2.0,Calm,Calm,-,N/A,,Overcast,0,2012-11-21 06:36:00
1:56 AM,43.3,42.3,96,30.14,2.0,Calm,Calm,-,N/A,,Overcast,0,2012-11-21 06:56:00
2:16 AM,43.2,42.1,96,30.14,2.0,Calm,Calm,-,N/A,,Overcast,0,2012-11-21 07:16:00
2:36 AM,43.2,42.1,96,30.14,1.5,Calm,Calm,-,N/A,,Overcast,0,2012-11-21 07:36:00
2:56 AM,42.8,41.5,95,30.14,1.2,Calm,Calm,-,N/A,,Overcast,0,2012-11-21 07:56:00
3:16 AM,42.3,41.2,96,30.14,2.5,Calm,Calm,-,N/A,,Overcast,0,2012-11-21 08:16:00
3:36 AM,42.1,41.0,96,30.14,3.0,Calm,Calm,-,N/A,,Overcast,0,2012-11-21 08:36:00
3:56 AM,41.9,41.0,97,30.15,2.5,Calm,Calm,-,N/A,,Overcast,0,2012-11-21 08:56:00
4:16 AM,41.9,41.0,97,30.14,1.5,Calm,Calm,-,N/A,,Overcast,0,2012-11-21 09:16:00
4:36 AM,41.9,41.0,97,30.14,1.8,Calm,Calm,-,N/A,,Overcast,0,2012-11-21 09:36:00
4:56 AM,41.9,41.0,97,30.14,2.0,Calm,Calm,-,N/A,,Overcast,0,2012-11-21 09:56:00
5:16 AM,41.9,41.0,97,30.15,1.2,Calm,Calm,-,N/A,,Overcast,0,2012-11-21 10:16:00
5:36 AM,41.9,41.0,97,30.14,0.8,South,3.5,-,N/A,,Overcast,180,2012-11-21 10:36:00
5:56 AM,42.6,41.5,96,30.14,3.0,South,5.8,-,N/A,,Overcast,190,2012-11-21 10:56:00
6:16 AM,43.0,41.9,96,30.15,5.0,SW,3.5,-,N/A,,Overcast,220,2012-11-21 11:16:00
6:36 AM,43.5,41.9,94,30.14,5.0,SSW,4.6,-,N/A,,Overcast,210,2012-11-21 11:36:00
6:56 AM,43.9,41.9,93,30.14,7.0,South,5.8,-,N/A,,Overcast,180,2012-11-21 11:56:00
7:16 AM,43.9,41.9,93,30.14,7.0,South,4.6,-,N/A,,Overcast,170,2012-11-21 12:16:00
7:36 AM,44.2,42.1,92,30.15,5.0,South,4.6,-,N/A,,Overcast,190,2012-11-21 12:36:00
7:56 AM,44.4,42.4,93,30.15,5.0,South,3.5,-,N/A,,Overcast,190,2012-11-21 12:56:00
8:16 AM,44.6,42.8,93,30.15,3.0,SSW,4.6,-,N/A,,Overcast,200,2012-11-21 13:16:00
8:36 AM,45.5,42.3,88,30.16,5.0,SSW,5.8,-,N/A,,Overcast,210,2012-11-21 13:36:00
8:55 AM,45.5,42.4,89,30.15,4.0,South,5.8,-,N/A,,Overcast,190,2012-11-21 13:55:00
9:16 AM,45.5,42.3,88,30.15,4.0,South,5.8,-,N/A,,Overcast,190,2012-11-21 14:16:00
9:36 AM,45.5,42.1,88,30.15,5.0,South,5.8,-,N/A,,Overcast,190,2012-11-21 14:36:00
9:56 AM,45.5,41.9,87,30.15,5.0,SSW,5.8,-,N/A,,Overcast,200,2012-11-21 14:56:00
10:16 AM,45.9,41.9,86,30.14,5.0,South,3.5,-,N/A,,Overcast,190,2012-11-21 15:16:00
10:36 AM,46.0,41.9,85,30.14,7.0,South,6.9,-,N/A,,Overcast,180,2012-11-21 15:36:00
10:55 AM,46.4,41.5,83,30.15,7.0,SSW,5.8,-,N/A,,Overcast,200,2012-11-21 15:55:00
11:16 AM,46.6,40.6,80,30.14,7.0,SSW,8.1,-,N/A,,Overcast,200,2012-11-21 16:16:00
11:36 AM,46.9,40.5,78,30.14,7.0,SSW,5.8,-,N/A,,Overcast,200,2012-11-21 16:36:00
11:55 AM,47.8,40.5,76,30.12,7.0,SSW,8.1,-,N/A,,Overcast,210,2012-11-21 16:55:00
12:16 PM,48.4,40.5,74,30.11,7.0,SSW,9.2,-,N/A,,Scattered Clouds,200,2012-11-21 17:16:00
12:36 PM,48.7,40.5,73,30.10,7.0,SSW,5.8,-,N/A,,Clear,200,2012-11-21 17:36:00
12:55 PM,49.1,40.3,72,30.09,7.0,Calm,Calm,-,N/A,,Clear,0,2012-11-21 17:55:00
1:16 PM,50.0,40.5,70,30.08,5.0,SSW,5.8,-,N/A,,Haze,200,2012-11-21 18:16:00
1:35 PM,50.5,40.5,68,30.08,5.0,South,4.6,-,N/A,,Haze,190,2012-11-21 18:35:00
1:56 PM,51.1,41.0,68,30.07,5.0,Calm,Calm,-,N/A,,Haze,0,2012-11-21 18:56:00
2:16 PM,51.6,41.2,68,30.06,5.0,Calm,Calm,-,N/A,,Haze,0,2012-11-21 19:16:00
2:35 PM,51.1,40.6,67,30.06,5.0,Calm,Calm,-,N/A,,Haze,0,2012-11-21 19:35:00
2:56 PM,52.0,40.6,65,30.05,7.0,SSW,4.6,-,N/A,,Clear,210,2012-11-21 19:56:00
3:16 PM,52.2,40.5,64,30.04,7.0,Calm,Calm,-,N/A,,Clear,0,2012-11-21 20:16:00
3:35 PM,52.0,40.5,65,30.04,7.0,Calm,Calm,-,N/A,,Clear,0,2012-11-21 20:35:00
3:56 PM,51.8,40.6,66,30.03,7.0,Calm,Calm,-,N/A,,Clear,0,2012-11-21 20:56:00
4:16 PM,51.3,40.5,67,30.03,7.0,South,4.6,-,N/A,,Clear,190,2012-11-21 21:16:00
4:35 PM,50.9,40.3,67,30.02,7.0,South,4.6,-,N/A,,Clear,190,2012-11-21 21:35:00
4:56 PM,51.3,40.3,66,30.02,10.0,South,5.8,-,N/A,,Clear,170,2012-11-21 21:56:00
5:16 PM,50.9,40.3,67,30.01,10.0,SSE,8.1,-,N/A,,Clear,160,2012-11-21 22:16:00
5:35 PM,50.7,40.3,67,30.01,10.0,SSE,6.9,-,N/A,,Clear,160,2012-11-21 22:35:00
5:56 PM,50.7,40.1,67,30.00,10.0,SSE,9.2,-,N/A,,Clear,160,2012-11-21 22:56:00
6:16 PM,50.4,40.1,68,30.00,10.0,SSE,10.4,-,N/A,,Clear,150,2012-11-21 23:16:00
6:35 PM,49.8,40.1,69,30.00,10.0,SSE,9.2,-,N/A,,Clear,160,2012-11-21 23:35:00
6:56 PM,49.3,40.1,71,29.98,10.0,SSE,9.2,-,N/A,,Clear,160,2012-11-21 23:56:00
7:16 PM,49.1,40.1,71,29.98,10.0,SSE,10.4,-,N/A,,Clear,160,2012-11-22 00:16:00
7:35 PM,49.1,40.1,71,29.98,10.0,SSE,9.2,-,N/A,,Clear,160,2012-11-22 00:35:00
7:56 PM,48.4,40.3,74,29.97,10.0,South,5.8,-,N/A,,Clear,170,2012-11-22 00:56:00
8:15 PM,47.7,40.3,76,29.98,10.0,South,4.6,-,N/A,,Clear,170,2012-11-22 01:15:00
8:36 PM,45.5,39.6,80,29.97,10.0,South,4.6,-,N/A,,Clear,190,2012-11-22 01:36:00
8:56 PM,45.5,39.0,78,29.97,10.0,SSW,5.8,-,N/A,,Clear,210,2012-11-22 01:56:00
9:15 PM,47.5,38.7,71,29.97,10.0,SSW,5.8,-,N/A,,Clear,200,2012-11-22 02:15:00
9:36 PM,46.6,38.3,73,29.97,10.0,SSW,5.8,-,N/A,,Clear,200,2012-11-22 02:36:00
9:56 PM,43.7,38.3,81,29.97,10.0,SSW,5.8,-,N/A,,Clear,200,2012-11-22 02:56:00
10:15 PM,42.1,37.8,85,29.97,10.0,SSW,5.8,-,N/A,,Clear,210,2012-11-22 03:15:00
10:36 PM,43.3,37.4,80,29.96,10.0,SSW,4.6,-,N/A,,Clear,210,2012-11-22 03:36:00
10:56 PM,46.6,36.3,67,29.96,10.0,SSW,5.8,-,N/A,,Clear,210,2012-11-22 03:56:00
11:16 PM,46.8,34.9,63,29.95,10.0,SSW,5.8,-,N/A,,Clear,210,2012-11-22 04:16:00
11:36 PM,46.8,34.7,63,29.95,10.0,SSW,6.9,-,N/A,,Clear,210,2012-11-22 04:36:00
11:56 PM,46.6,34.2,62,29.95,10.0,SSW,6.9,-,N/A,,Clear,200,2012-11-22 04:56:00